Date String (YYYY-MM-DD hh:mm:ss) UTC,Instrument flags,absolute air pressure of the measurement (hPa),sample flow rate (lpm),inlet stack bypass flow (lpm),air temperature of the measurement (°C),ambient temperature measured by the external sensor (°C),aerosol sample conditioner tube jacket temperature (°C),OPC LED temperature (°C),internal box temperature (°C),relative humidity of the measurement (%),span deviation,mass concentration of particles derived from Lorenz-Mie calculation of OPC scattering (μg/m³),mass concentration of particles derived from Lorenz-Mie calculation of OPC scattering (μg/m³),mass concentration of particles derived from Lorenz-Mie calculation of OPC scattering (μg/m³)
DateTimeUTC,F1_M11,P_M11,Q1_M11,Q2_M11,T1_M11,T2_M11,T3_M11,T4_M11,T5_M11,U1_M11,ZSPAN_M11,X2_M11,X0_M11,X1_M11
2023-06-18 23:00:00,SystemResetWarning,0823.5,4.97,000.00,029.4,026.8,000.0,037.7,031.1,25.3,0000.0,0004.17,0007.02,0003.86
2023-06-18 23:01:00,SystemResetWarning,0823.4,5.01,000.00,029.3,024.7,000.0,037.7,030.9,24.9,0000.0,0004.16,0006.74,0003.86
2023-06-18 23:02:00,SystemResetWarning,0823.4,5.01,000.00,029.3,024.4,000.0,037.6,030.9,21.8,0000.0,0004.16,0007.02,0003.85
2023-06-18 23:03:00,SystemResetWarning,0823.4,5.01,000.00,029.2,024.8,000.0,037.6,030.6,22.2,0000.0,0004.18,0008.09,0003.86
2023-06-18 23:04:00,SystemResetWarning,0823.4,4.99,000.00,029.2,025.3,000.0,037.6,030.5,23.4,0000.0,0004.20,0008.31,0003.87
2023-06-18 23:05:00,SystemResetWarning,0823.4,4.99,000.00,029.1,025.8,000.0,037.6,030.6,21.9,0000.0,0004.18,0008.16,0003.87
2023-06-18 23:06:00,SystemResetWarning,0823.4,5.01,000.00,029.1,026.3,000.0,037.6,030.7,22.4,0000.0,0004.19,0008.22,0003.88
2023-06-18 23:07:00,SystemResetWarning,0823.4,5.00,000.00,029.2,026.7,000.0,037.7,030.8,24.3,0000.0,0004.16,0008.89,0003.88
2023-06-18 23:08:00,SystemResetWarning,0823.4,5.00,000.00,029.2,027.1,000.0,037.7,030.9,21.8,0000.0,0004.13,0008.90,0003.86
2023-06-18 23:09:00,SystemResetWarning,0823.4,4.99,000.00,029.2,027.4,000.0,037.7,030.9,22.9,0000.0,0004.13,0008.94,0003.85
2023-06-18 23:10:00,SystemResetWarning,0823.4,5.00,000.00,029.3,027.6,000.0,037.7,031.0,23.1,0000.0,0004.15,0009.09,0003.85
2023-06-18 23:11:00,SystemResetWarning,0823.4,5.00,000.00,029.3,027.9,000.0,037.7,031.1,23.2,0000.0,0004.16,0009.22,0003.84
2023-06-18 23:12:00,SystemResetWarning,0823.4,4.98,000.00,029.4,027.3,000.0,037.7,031.1,23.0,0000.0,0004.17,0009.33,0003.85
2023-06-18 23:13:00,SystemResetWarning,0823.3,5.00,000.00,029.3,025.5,000.0,037.7,030.9,24.1,0000.0,0004.17,0009.74,0003.85
2023-06-18 23:14:00,SystemResetWarning,0823.3,5.01,000.00,029.3,025.4,000.0,037.7,031.0,23.5,0000.0,0004.20,0009.51,0003.86
2023-06-18 23:15:00,SystemResetWarning,0823.3,5.01,000.00,029.3,025.7,000.0,037.7,030.7,22.7,0000.0,0004.19,0009.35,0003.86
2023-06-18 23:16:00,SystemResetWarning,0823.3,5.00,000.00,029.2,026.1,000.0,037.7,030.7,23.6,0000.0,0004.22,0009.40,0003.87
2023-06-18 23:17:00,SystemResetWarning,0823.3,5.00,000.00,029.3,026.5,000.0,037.7,030.8,24.0,0000.0,0004.25,0009.48,0003.89
2023-06-18 23:18:00,SystemResetWarning,0823.3,5.00,000.00,029.3,026.9,000.0,037.7,030.9,23.6,0000.0,0004.27,0008.88,0003.90
2023-06-18 23:19:00,SystemResetWarning,0823.3,5.00,000.00,029.3,027.3,000.0,037.7,030.9,24.4,0000.0,0004.30,0008.81,0003.91
2023-06-18 23:20:00,SystemResetWarning,0823.4,5.00,000.00,029.3,027.6,000.0,037.8,031.0,24.5,0000.0,0004.31,0008.83,0003.93
2023-06-18 23:21:00,SystemResetWarning,0823.4,5.00,000.00,029.4,027.7,000.0,037.8,031.1,24.8,0000.0,0004.30,0009.18,0003.94
2023-06-18 23:22:00,SystemResetWarning,0823.4,4.99,000.00,029.4,026.4,000.0,037.8,031.1,23.3,0000.0,0004.31,0009.24,0003.94
2023-06-18 23:23:00,SystemResetWarning,0823.4,5.01,000.00,029.4,025.3,000.0,037.7,031.0,23.2,0000.0,0004.33,0009.41,0003.94
2023-06-18 23:24:00,SystemResetWarning,0823.4,5.01,000.00,029.4,025.5,000.0,037.7,030.9,23.9,0000.0,0004.33,0008.86,0003.95
2023-06-18 23:25:00,SystemResetWarning,0823.4,5.00,000.00,029.3,025.9,000.0,037.7,030.7,23.8,0000.0,0004.32,0008.23,0003.95
2023-06-18 23:26:00,SystemResetWarning,0823.4,5.00,000.00,029.3,026.3,000.0,037.7,030.8,23.9,0000.0,0004.31,0008.25,0003.96
2023-06-18 23:27:00,SystemResetWarning,0823.4,4.99,000.00,029.3,026.7,000.0,037.8,030.8,24.5,0000.0,0004.32,0009.30,0003.96
2023-06-18 23:28:00,SystemResetWarning,0823.4,4.99,000.00,029.3,027.1,000.0,037.8,030.9,24.7,0000.0,0004.33,0009.61,0003.96
2023-06-18 23:29:00,SystemResetWarning,0823.5,5.01,000.00,029.4,027.4,000.0,037.8,031.0,24.5,0000.0,0004.33,0009.62,0003.96
2023-06-18 23:30:00,SystemResetWarning,0823.5,5.02,000.00,029.4,027.6,000.0,037.8,031.0,25.2,0000.0,0004.33,0009.57,0003.96
2023-06-18 23:31:00,SystemResetWarning,0823.4,4.99,000.00,029.4,027.5,000.0,037.8,031.1,25.0,0000.0,0004.34,0009.66,0003.96
2023-06-18 23:32:00,SystemResetWarning,0823.4,4.99,000.00,029.4,025.7,000.0,037.8,030.9,23.3,0000.0,0004.33,0009.16,0003.96
2023-06-18 23:33:00,SystemResetWarning,0823.4,5.02,000.00,029.4,025.3,000.0,037.7,030.9,23.7,0000.0,0004.32,0010.29,0003.96
2023-06-18 23:34:00,SystemResetWarning,0823.4,4.99,000.00,029.3,025.6,000.0,037.7,030.8,23.3,0000.0,0004.32,0010.16,0003.96
2023-06-18 23:35:00,SystemResetWarning,0823.4,5.00,000.00,029.3,026.0,000.0,037.8,030.7,22.9,0000.0,0004.32,0010.19,0003.96
2023-06-18 23:36:00,SystemResetWarning,0823.3,5.00,000.00,029.3,026.4,000.0,037.8,030.8,23.2,0000.0,0004.32,0010.25,0003.95
2023-06-18 23:37:00,SystemResetWarning,0823.4,5.00,000.00,029.3,026.8,000.0,037.8,030.9,23.7,0000.0,0004.33,0010.22,0003.94
2023-06-18 23:38:00,SystemResetWarning,0823.3,4.98,000.00,029.3,027.2,000.0,037.8,031.0,24.0,0000.0,0004.31,0009.19,0003.93
2023-06-18 23:39:00,SystemResetWarning,0823.3,5.00,000.00,029.4,027.5,000.0,037.8,031.0,24.2,0000.0,0004.30,0008.74,0003.93
2023-06-18 23:40:00,SystemResetWarning,0823.3,5.01,000.00,029.4,027.7,000.0,037.8,031.1,24.2,0000.0,0004.30,0009.18,0003.92
2023-06-18 23:41:00,SystemResetWarning,0823.3,4.98,000.00,029.4,026.8,000.0,037.8,031.1,24.9,0000.0,0004.30,0009.32,0003.91
2023-06-18 23:42:00,SystemResetWarning,0823.3,5.00,000.00,029.4,025.3,000.0,037.8,031.1,24.9,0000.0,0004.28,0009.23,0003.91
2023-06-18 23:43:00,SystemResetWarning,0823.3,5.01,000.00,029.4,025.4,000.0,037.7,031.0,24.8,0000.0,0004.29,0009.22,0003.90
2023-06-18 23:44:00,SystemResetWarning,0823.4,5.00,000.00,029.3,025.7,000.0,037.8,030.8,23.9,0000.0,0004.30,0008.16,0003.91
2023-06-18 23:45:00,SystemResetWarning,0823.3,5.00,000.00,029.3,026.2,000.0,037.8,030.8,24.0,0000.0,0004.30,0007.77,0003.91
2023-06-18 23:46:00,SystemResetWarning,0823.3,5.00,000.00,029.3,026.6,000.0,037.8,030.8,22.5,0001.0,0004.30,0008.09,0003.92
2023-06-18 23:47:00,SystemResetWarning,0823.3,5.00,000.00,029.3,027.0,000.0,037.8,030.9,22.3,0001.4,0004.29,0008.47,0003.92
2023-06-18 23:48:00,SystemResetWarning,0823.3,4.99,000.00,029.4,027.3,000.0,037.8,031.0,22.5,0000.2,0004.29,0008.47,0003.93
2023-06-18 23:49:00,SystemResetWarning,0823.3,5.01,000.00,029.4,027.6,000.0,037.9,031.0,22.2,0001.2,0004.29,0008.42,0003.94
2023-06-18 23:50:00,SystemResetWarning,0823.4,5.00,000.00,029.5,027.6,000.0,037.9,031.1,21.0,0004.6,0004.27,0008.36,0003.95
2023-06-18 23:51:00,SystemResetWarning,0823.4,4.98,000.00,029.5,026.0,000.0,037.8,031.1,21.5,0004.9,0004.28,0008.12,0003.95
2023-06-18 23:52:00,SystemResetWarning,0823.3,5.02,000.00,029.4,025.2,000.0,037.8,031.0,21.1,0001.1,0004.32,0007.81,0003.96
2023-06-18 23:53:00,SystemResetWarning,0823.3,5.00,000.00,029.4,025.5,000.0,037.8,030.8,22.1,0000.0,0004.34,0008.41,0003.97
2023-06-18 23:54:00,SystemResetWarning,0823.3,5.00,000.00,029.3,025.9,000.0,037.8,030.7,21.7,0000.0,0004.35,0008.76,0003.97
2023-06-18 23:55:00,SystemResetWarning,0823.3,5.01,000.00,029.3,026.3,000.0,037.8,030.8,22.3,0000.0,0004.37,0008.92,0003.98
2023-06-18 23:56:00,SystemResetWarning,0823.3,4.98,000.00,029.3,026.7,000.0,037.8,030.9,22.1,0000.0,0004.38,0008.91,0003.99
2023-06-18 23:57:00,SystemResetWarning,0823.3,5.00,000.00,029.4,027.1,000.0,037.8,030.9,22.2,0000.0,0004.36,0008.73,0004.00
2023-06-18 23:58:00,SystemResetWarning,0823.3,5.02,000.00,029.4,027.4,000.0,037.8,031.0,21.7,0000.0,0004.38,0008.12,0004.00
2023-06-18 23:59:00,SystemResetWarning,0823.3,5.00,000.00,029.4,027.7,000.0,037.9,031.1,22.3,0000.0,0004.40,0008.23,0004.00
